Location: ??
(35.1714°N, 128.2806°E)
Time: 15:07:23
(UTC+00:00)

X-37B - Pass Details

Date: 29 October 2020
Orbit: 384 x 390 km, 45.0° (Epoch: 26 November)

Event Time Altitude Azimuth Distance (km) Brightness Sun altitude
Rises 20:59:53 0° 206° (SSW) 2,255 4.3 -10.1°
Reaches altitude 10° 21:02:17 10° 189° (S) 1,404 3.4 -9.6°
Maximum altitude 21:04:42 20° 139° (SE) 956 3.3 -9.1°
Drops below altitude 10° 21:07:06 10° 89° (E) 1,408 5.0 -8.6°
Sets 21:09:30 0° 72° (ENE) 2,263 5.7 -8.1°
